Dewpoint
54 54 54 54 54 55 54 54 54 53 54 54 55 55 55 54 54 54 53 54 54 54 53 52 51 51 49 48 46 48 49 50 50 48 47 47 46 47 46 44 42 43 44 46 45 43 41 39 38 38 41 39 38 38 39 42 43 44 46 45 45 46 46 46 45 44 46 48 48 47 48 51 47 48 50 52 54 54 52 54 56 60 60 60 60
54 54 55 55 55 54 55 55 54 54 54 54 54 54 54 54 54 53 53 53 53 52 51 53 51 50 48 46 46 46 47 47 48 47 46 47 48 49 47 44 43 43 44 42 43 42 42 39 37 39 38 38 40 34 33 36 38 38 40 44 42 44 47 46 44 45 45 46 46 48 49 51 48 48 52 52 52 53 50 51 52 53 57 59 58
54 55 56 56 55 55 55 55 54 55 55 54 54 53 54 54 53 53 52 53 53 52 51 52 51 49 48 47 46 47 47 47 48 47 46 45 44 46 46 44 44 44 43 41 37 39 40 40 38 39 41 40 40 40 40 38 37 37 41 42 42 44 44 45 44 44 43 44 46 44 46 49 50 45 45 48 49 49 48 51 51 51 52 57 58
54 55 56 56 56 56 56 55 55 55 55 54 55 55 54 54 53 53 52 53 51 52 52 51 50 49 48 46 46 47 47 48 47 46 44 43 43 43 44 44 43 42 40 39 37 39 39 39 39 38 39 39 38 38 37 39 39 38 39 41 42 43 45 46 45 44 43 42 44 42 43 43 44 44 44 45 45 45 46 48 50 50 51 51 54
55 54 54 56 57 56 57 56 55 55 55 54 55 55 55 54 53 51 52 52 51 52 51 51 50 48 49 46 46 47 47 46 46 46 46 45 44 44 43 42 42 40 41 40 39 39 38 38 38 38 38 39 39 38 37 40 36 38 39 37 38 40 43 43 43 42 42 42 42 43 44 43 43 43 43 43 43 43 44 47 47 49 53 55 54
56 56 55 56 56 56 57 57 56 55 55 55 55 55 54 54 53 53 51 51 51 51 51 50 49 47 46 45 46 46 46 46 45 44 44 44 44 44 42 41 40 39 39 39 38 39 40 38 38 37 37 38 38 38 39 40 38 39 38 37 36 38 41 42 42 42 41 41 42 41 42 42 42 43 43 45 45 44 43 45 46 47 50 54 54
51 55 56 56 56 56 57 56 57 56 55 55 55 54 54 54 53 52 53 52 51 53 52 50 50 47 46 47 47 47 47 46 45 45 43 42 41 40 41 41 40 41 39 38 38 39 38 37 39 38 38 38 39 38 39 40 40 41 40 41 40 40 41 41 40 40 40 40 40 40 40 41 43 42 41 43 44 44 45 45 45 45 47 50 53
48 49 52 55 55 56 57 58 57 57 55 55 54 54 54 53 52 51 51 51 50 51 50 50 50 48 48 47 48 49 46 44 43 42 41 41 41 40 40 41 39 39 40 38 39 38 38 37 37 37 37 38 39 39 40 40 40 40 40 41 41 40 40 39 39 38 39 40 39 38 38 39 40 42 41 44 43 43 42 45 45 45 48 49 53
47 47 49 51 52 54 56 56 56 56 55 55 54 54 54 53 52 51 52 52 52 51 51 52 51 49 48 48 47 46 45 43 42 41 41 39 39 39 38 35 37 36 36 36 37 37 37 38 38 38 39 40 41 41 41 41 39 38 39 40 40 39 39 38 38 37 38 38 38 39 39 38 39 40 40 41 42 42 44 46 46 46 46 46 46
46 47 47 49 50 50 52 54 55 55 55 55 54 54 53 53 52 51 50 50 50 51 51 51 50 49 47 46 45 45 44 43 42 40 40 35 34 33 36 35 34 34 35 35 36 36 37 38 39 40 41 41 41 40 40 40 41 40 37 38 38 39 38 38 37 36 37 36 37 37 37 37 38 40 41 42 43 44 43 44 43 43 45 46 47
46 47 47 47 48 49 51 52 53 54 54 55 55 54 52 52 51 50 49 49 51 50 50 49 50 49 46 44 43 43 42 39 38 37 37 38 35 35 33 33 34 34 34 34 34 35 35 34 36 38 39 39 39 39 39 38 38 38 39 40 40 38 37 37 37 37 37 36 36 37 36 37 39 40 41 41 42 42 43 43 43 44 43 42 42
46 46 46 47 47 47 49 50 51 52 53 53 54 53 52 51 50 50 50 52 51 51 51 49 48 46 44 42 42 41 38 38 36 36 37 36 37 33 34 33 34 33 33 33 33 34 34 36 37 38 38 37 36 35 36 37 37 37 37 37 37 37 38 38 37 36 37 35 35 36 36 37 37 39 39 41 40 40 42 43 43 43 44 43 44
46 46 46 46 46 47 47 48 49 51 52 52 53 52 51 50 50 50 50 51 51 49 48 47 45 43 42 40 39 37 33 37 36 36 36 35 35 35 30 33 33 32 33 33 34 35 35 36 36 37 37 37 37 36 36 36 37 37 38 38 38 37 36 36 37 39 37 36 36 36 35 36 36 37 39 40 41 41 41 39 41 42 43 42 43
45 45 46 46 46 46 47 47 48 50 52 52 52 52 51 50 51 51 51 50 49 47 45 44 43 42 41 40 37 35 33 36 35 36 35 35 34 34 33 34 34 33 33 34 35 35 35 35 35 35 36 36 36 36 36 36 36 36 35 35 35 36 36 37 36 36 38 38 36 35 36 37 35 37 38 38 39 39 39 39 41 41 42 43 46
45 46 46 46 46 46 46 46 47 49 50 50 51 51 51 51 50 50 49 48 46 44 43 42 42 41 39 38 36 36 35 36 35 35 34 35 34 35 34 35 34 34 34 35 35 35 35 36 36 35 35 35 36 36 35 34 34 34 34 34 34 34 34 35 36 37 38 38 37 36 36 36 36 37 37 37 38 39 40 40 41 42 43 45 46
44 45 45 45 45 45 45 46 47 48 49 49 50 51 51 50 50 49 48 46 44 43 43 42 41 40 39 40 38 36 39 35 35 35 34 34 34 34 32 33 32 32 33 34 33 34 34 35 35 35 35 35 34 34 35 34 33 33 33 33 33 33 34 34 35 36 36 36 36 36 36 37 36 39 38 37 37 39 38 39 40 40 39 39 37
44 44 45 44 45 45 45 45 46 47 48 48 49 50 50 49 48 46 45 43 41 41 40 39 36 36 37 36 35 35 35 36 34 34 34 33 34 30 31 28 29 31 32 33 33 33 35 34 33 33 33 33 33 34 34 35 33 32 32 33 33 33 33 34 34 35 35 35 35 35 35 35 35 35 35 36 38 38 37 36 37 39 38 38 38
43 43 44 43 44 44 45 44 45 46 47 47 49 50 49 47 45 44 42 40 39 39 41 39 37 37 35 35 35 34 33 35 35 35 34 34 34 31 27 28 30 30 31 32 33 33 33 34 34 33 33 32 33 33 34 34 32 31 31 31 31 31 31 32 33 33 34 35 35 35 35 35 35 35 36 36 36 37 37 34 36 36 37 37 36
44 43 44 44 44 44 44 45 45 46 47 48 49 47 44 43 42 41 41 41 40 39 37 35 35 37 37 38 38 36 34 35 36 35 35 35 34 31 28 27 28 29 30 30 32 32 31 32 33 33 33 33 33 33 33 33 31 31 31 31 30 30 31 32 32 31 32 32 33 33 34 35 36 35 36 36 36 37 37 37 36 35 35 36 37
43 43 44 44 44 44 45 45 46 46 47 48 45 43 42 41 42 41 40 41 39 35 34 34 34 35 37 37 37 37 36 35 36 34 35 35 35 31 29 27 28 28 29 30 30 31 31 30 31 32 33 33 33 33 33 33 32 31 31 31 30 30 31 31 32 32 31 32 32 32 32 32 33 34 35 36 37 38 37 37 37 35 35 35 37
44 44 44 44 44 44 44 45 47 47 46 43 42 41 41 41 40 38 39 40 40 39 36 36 36 36 36 36 36 38 38 37 36 34 35 35 34 34 30 29 29 28 29 29 29 29 29 29 31 31 32 33 33 33 33 33 33 32 32 31 31 32 33 32 32 33 32 32 32 32 31 31 32 32 33 33 34 35 36 37 37 37 35 35 35
45 44 43 42 43 43 45 46 47 46 42 41 40 40 41 41 42 40 39 40 39 38 38 39 40 39 39 39 37 38 37 37 36 35 34 34 34 34 32 31 31 30 30 29 29 30 30 30 31 32 33 33 33 33 33 33 33 32 31 31 32 32 31 32 31 31 31 31 31 31 30 30 30 31 32 32 32 34 36 36 37 37 37 36 36
42 42 42 42 43 44 45 45 44 43 42 40 40 40 40 39 38 36 36 36 36 36 36 36 34 33 34 35 35 36 37 36 36 36 35 34 34 33 33 32 32 32 31 30 30 30 31 31 31 33 33 32 32 32 32 32 32 32 32 32 32 32 33 32 31 31 31 31 31 31 30 30 30 30 31 31 32 33 34 35 36 36 37 37 37
41 42 42 43 44 43 42 42 41 40 38 37 37 38 39 38 35 36 35 34 34 34 33 35 34 33 31 29 32 32 35 34 34 34 34 32 32 32 32 32 33 32 32 31 31 31 31 31 31 32 32 32 32 33 33 33 32 32 32 32 32 33 32 32 32 32 32 32 31 31 30 30 30 29 30 31 32 33 34 35 35 36 36 37 37
41 42 43 43 42 40 39 39 38 37 37 37 37 37 37 37 36 38 38 35 35 34 33 34 34 34 33 30 28 29 32 32 32 32 32 32 32 32 32 32 32 32 32 32 32 32 32 33 33 33 33 33 33 33 33 33 33 33 33 33 34 33 33 32 32 32 32 32 31 31 30 31 30 31 31 32 32 33 33 34 35 35 36 36 37
41 42 41 40 38 37 37 37 37 37 38 39 38 38 35 36 37 35 36 36 34 36 35 32 30 32 30 30 29 30 31 30 29 30 31 33 32 32 32 33 34 34 34 32 33 33 32 32 32 32 32 32 31 31 31 31 32 32 32 33 33 32 32 32 32 32 32 32 32 31 31 31 31 31 32 32 31 31 32 32 33 33 36 36 36
42 42 42 42 40 38 38 39 40 41 38 37 37 37 38 35 36 38 33 33 32 31 31 30 30 29 29 27 27 27 25 26 28 30 31 31 32 33 32 31 32 32 31 30 30 30 30 30 30 31 32 32 32 32 32 33 32 32 31 32 32 32 33 33 33 33 33 32 32 32 32 32 32 32 31 31 31 31 32 32 33 33 35 36 36
40 40 40 41 41 41 39 34 35 35 35 36 37 36 37 36 35 33 32 32 30 29 30 28 27 26 24 24 24 24 25 27 28 30 31 31 32 31 31 31 30 30 29 30 30 30 30 31 31 30 30 30 30 30 30 31 31 30 31 31 31 32 33 33 34 34 34 33 33 33 32 33 32 32 32 32 32 32 32 33 33 34 34 36 37
39 40 41 40 40 38 36 36 37 37 37 35 35 35 34 34 34 34 35 36 32 30 29 29 29 27 26 25 24 27 27 28 30 32 33 33 32 31 31 30 30 30 30 32 30 31 30 30 29 29 29 29 29 30 29 29 30 31 31 31 31 31 32 34 34 34 34 34 34 33 33 33 33 33 33 33 33 33 33 34 34 34 34 35 36
40 40 40 39 39 39 37 36 33 32 32 32 32 32 31 32 32 30 32 33 32 32 31 29 29 31 31 29 30 28 28 29 32 32 33 33 33 33 33 33 32 31 32 32 31 29 29 28 28 28 29 28 28 28 28 29 29 29 30 30 31 31 32 33 34 33 33 33 34 33 33 33 33 34 34 34 34 35 35 35 35 35 36 36 36
39 40 39 39 39 38 38 36 31 31 31 31 31 30 31 32 32 32 32 32 32 32 32 32 32 33 34 28 31 32 31 32 32 33 33 33 33 33 32 32 32 32 32 30 29 28 27 27 27 28 28 29 28 28 29 28 28 29 29 30 31 31 30 32 32 32 32 32 33 33 33 33 33 33 33 33 33 34 36 36 37 37 36 36 36
40 40 40 40 36 34 32 32 32 32 30 29 30 30 29 29 29 31 33 33 33 33 33 33 33 33 32 32 31 31 31 32 33 33 33 33 33 33 32 32 32 32 31 32 28 27 27 27 27 28 29 28 28 28 29 29 29 29 30 29 29 29 30 30 31 33 32 32 32 32 32 32 33 32 33 32 32 33 35 33 34 34 35 37 37
38 37 35 34 34 32 32 32 32 32 32 31 31 28 24 24 24 26 28 33 33 33 33 32 32 33 33 33 33 31 31 32 33 33 33 33 33 32 32 32 32 31 31 29 28 27 27 29 29 29 29 28 29 29 29 29 29 29 30 29 29 30 31 31 32 33 32 32 32 32 32 32 32 32 32 32 32 32 32 32 34 35 35 34 34
34 34 34 35 34 33 32 33 31 31 32 30 28 26 25 26 24 24 25 26 29 30 32 31 31 32 32 32 32 32 32 33 33 33 33 33 33 32 32 31 31 31 31 29 28 28 28 29 29 29 28 29 29 29 29 29 29 30 30 30 30 31 31 31 33 32 32 32 32 32 32 32 32 32 32 32 32 32 32 32 33 33 33 34 34
32 31 31 31 33 32 32 32 32 32 31 31 29 27 29 29 27 26 24 25 26 26 27 29 30 30 30 30 31 32 32 33 33 33 33 33 33 32 32 29 28 29 29 29 28 28 28 29 29 29 29 29 29 29 29 29 30 30 30 30 30 31 31 31 31 32 32 32 32 32 33 33 33 32 32 32 32 32 32 32 33 34 34 34 34
34 33 34 33 32 32 32 32 32 33 32 33 32 31 30 28 26 26 27 26 27 25 27 28 28 30 31 31 31 32 32 32 33 32 32 33 32 33 28 28 28 29 29 29 29 29 29 29 29 29 30 30 30 29 30 29 30 30 30 30 30 30 30 30 31 31 32 32 32 33 33 33 32 32 32 32 33 32 32 32 33 33 34 34 34
34 33 33 32 32 32 33 32 33 32 30 31 31 30 30 29 28 27 28 27 28 28 28 28 29 30 30 29 31 31 32 32 32 32 32 32 32 30 29 29 29 29 29 29 29 30 29 29 29 30 30 30 30 30 30 30 30 30 30 30 31 30 30 30 31 31 32 32 32 33 33 33 32 32 32 32 32 32 32 32 33 34 34 34 34
34 32 32 33 33 33 33 32 30 29 31 31 32 32 29 29 29 27 28 27 27 25 27 27 29 26 25 26 32 31 30 32 32 32 31 31 30 28 29 29 29 29 29 29 30 30 30 30 30 30 30 30 30 30 30 30 30 30 30 30 30 30 31 31 32 32 32 32 33 33 33 33 33 32 32 32 32 32 32 32 33 33 34 34 35
33 32 31 31 31 31 31 31 31 31 31 30 30 29 27 28 28 27 29 28 26 26 26 26 27 27 28 30 30 33 32 27 27 29 30 30 29 29 30 29 29 29 29 29 30 30 30 30 30 30 30 30 30 30 30 30 30 30 30 30 30 30 30 30 31 31 32 32 33 33 33 33 33 33 33 33 32 33 33 33 33 33 33 34 34
32 31 31 31 31 31 31 31 31 31 30 30 29 29 28 28 29 29 28 27 26 26 26 27 28 31 32 31 31 32 28 27 28 29 30 29 29 30 30 29 29 29 29 30 29 30 30 30 30 30 30 30 30 30 30 30 30 30 30 30 30 30 30 31 31 31 32 32 33 34 33 33 33 33 33 33 33 33 33 33 33 34 34 34 34
32 32 31 30 31 32 31 32 32 32 31 31 31 32 29 30 29 28 28 27 27 28 29 29 30 31 31 30 30 31 32 30 30 30 30 30 30 30 30 30 30 30 30 29 30 30 30 30 30 30 30 30 30 30 30 30 30 30 30 30 30 30 30 31 31 31 32 32 33 34 34 34 34 33 33 33 34 34 33 34 34 34 34 34 34
32 32 32 32 33 32 32 31 32 32 32 31 31 31 30 30 30 30 29 29 28 29 31 30 31 31 30 29 30 30 32 32 31 31 31 31 31 31 31 31 31 31 30 30 30 30 30 30 30 30 29 30 30 30 30 30 30 30 30 30 30 30 30 31 31 31 32 32 33 34 34 34 34 34 34 34 34 34 34 34 34 34 34 34 33
32 32 32 33 32 32 32 32 32 32 31 31 31 30 31 31 32 31 30 30 30 30 30 31 30 31 30 29 29 30 31 31 31 31 31 31 31 31 31 31 30 31 31 30 30 30 30 30 30 30 30 30 30 30 30 30 30 30 30 30 30 30 30 31 31 31 32 32 33 33 34 34 35 35 34 34 34 34 34 34 34 34 33 33 33
33 34 31 31 31 31 31 31 31 31 31 30 30 31 31 31 31 31 30 30 30 29 29 29 29 29 30 30 30 30 30 30 30 30 31 30 31 31 31 31 31 31 30 29 29 30 30 30 30 30 30 30 30 31 31 31 31 31 31 30 30 31 31 31 31 31 32 32 32 32 33 33 34 34 34 34 34 34 33 33 33 33 33 33 33
32 31 31 31 31 31 31 31 31 30 30 30 30 30 30 30 30 29 29 29 29 29 29 29 29 29 29 29 30 30 30 30 30 30 29 30 30 31 31 31 31 31 29 29 29 30 30 30 30 30 30 30 30 31 31 31 31 31 31 31 31 31 31 31 32 32 33 33 32 32 33 33 33 33 33 33 33 33 33 33 32 32 32 32 33
31 31 31 31 30 30 30 30 30 30 30 30 30 29 29 29 29 29 29 29 29 29 29 29 29 29 29 29 29 29 29 29 29 29 29 29 29 30 30 31 31 31 30 29 29 30 29 30 30 30 30 30 31 31 31 31 31 31 32 32 32 32 32 32 32 32 33 33 32 32 33 33 33 33 32 33 32 32 32 33 33 32 32 32 32
31 31 30 30 30 30 30 30 30 29 29 29 29 29 29 29 28 28 28 28 28 28 28 28 28 28 28 28 28 28 28 28 28 29 29 29 29 29 29 30 31 31 31 30 30 29 30 30 30 30 31 31 31 31 31 31 31 31 31 32 33 33 32 32 32 33 33 33 33 33 33 32 32 32 32 32 32 32 33 32 32 32 32 32 32
30 30 30 30 30 30 29 29 29 29 29 28 28 28 28 28 27 27 27 27 27 27 27 27 27 27 27 27 27 27 27 27 27 28 28 28 28 28 29 30 30 30 31 31 30 30 30 30 30 30 31 31 31 31 31 31 31 31 31 32 33 33 33 33 33 33 33 33 33 33 33 32 32 32 32 32 32 32 32 32 32 32 32 32 32
29 29 29 29 29 29 29 29 29 28 28 28 28 27 27 27 27 26 26 26 25 26 26 26 26 26 26 26 26 26 26 26 26 26 26 27 28 28 28 29 29 30 30 31 31 31 31 30 31 30 31 31 31 31 31 31 31 31 31 32 32 32 32 33 33 33 34 33 33 33 33 32 32 32 32 32 32 32 32 32 32 32 32 32 31
28 28 28 28 28 28 29 29 28 28 28 28 28 28 28 27 27 26 26 25 25 25 24 25 24 24 24 24 25 25 25 25 25 26 25 25 26 27 27 28 29 29 29 30 31 31 31 31 30 30 31 31 31 31 31 31 31 31 32 32 32 32 33 33 33 33 33 33 33 33 32 32 32 32 32 32 32 32 32 31 31 31 31 31 31
28 28 28 28 28 28 28 28 28 28 28 29 28 28 28 27 27 26 26 25 25 24 24 24 24 24 24 24 24 24 24 24 24 24 24 25 25 26 26 26 27 28 29 30 30 31 31 31 30 30 30 31 31 31 31 31 31 31 31 31 32 32 33 33 32 33 33 33 33 32 32 32 32 32 32 32 32 32 31 31 31 31 31 31 31